This is the latest recevied weather packets stored in our database for station/object K5WNG. If no packets are shown the sender has not sent any weather packets the latest 10 day(s).
| Time | Temp. | Humidity | Pressure | Rain* | Wind** | Luminosity | Snow |
|---|---|---|---|---|---|---|---|
| 1777337117 | 28.89° C | 74% | 1009.2 hPa | 0 mm | - | 13 W/m² | - |
| 1777336821 | 28.89° C | 73% | 1008.9 hPa | 0 mm | - | 30 W/m² | - |
| 1777336518 | 28.89° C | 73% | 1008.9 hPa | 0 mm | - | 55 W/m² | - |
| 1777336217 | 28.89° C | 73% | 1008.9 hPa | 0 mm | - | 57 W/m² | - |
| 1777335918 | 28.89° C | 72% | 1008.8 hPa | 0 mm | - | 56 W/m² | - |
| 1777335621 | 28.89° C | 72% | 1008.7 hPa | 0 mm | - | 44 W/m² | - |
| 1777335318 | 29.44° C | 72% | 1008.8 hPa | 0 mm | - | 48 W/m² | - |
| 1777335021 | 29.44° C | 72% | 1008.8 hPa | 0 mm | - | 74 W/m² | - |
| 1777334718 | 29.44° C | 72% | 1009.1 hPa | 0 mm | - | 81 W/m² | - |
| 1777334421 | 29.44° C | 72% | 1009.1 hPa | 0 mm | - | 77 W/m² | - |
| 1777334118 | 29.44° C | 72% | 1009.1 hPa | 0 mm | - | 83 W/m² | - |
| 1777333821 | 29.44° C | 71% | 1009.2 hPa | 0 mm | - | 77 W/m² | - |
| 1777333518 | 30° C | 70% | 1009.1 hPa | 0 mm | - | 64 W/m² | - |
| 1777333218 | 30° C | 70% | 1009.2 hPa | 0 mm | - | 93 W/m² | - |
| 1777332918 | 30° C | 70% | 1009 hPa | 0 mm | - | 173 W/m² | - |
| 1777332622 | 30° C | 70% | 1008.9 hPa | 0 mm | - | 166 W/m² | - |
| 1777332319 | 30° C | 71% | 1009 hPa | 0 mm | - | 143 W/m² | - |
| 1777332018 | 30° C | 71% | 1009 hPa | 0 mm | - | 149 W/m² | - |
| 1777331716 | 30° C | 70% | 1009.1 hPa | 0 mm | - | 144 W/m² | - |
| 1777331419 | 30° C | 70% | 1009.1 hPa | 0 mm | - | 152 W/m² | - |
| 1777331120 | 30° C | 70% | 1009.1 hPa | 0 mm | - | 148 W/m² | - |
| 1777330816 | 30.56° C | 69% | 1009.2 hPa | 0 mm | - | 134 W/m² | - |
| 1777330520 | 30.56° C | 68% | 1009.1 hPa | 0 mm | - | 178 W/m² | - |
| 1777330219 | 30.56° C | 68% | 1009.2 hPa | 0 mm | - | 181 W/m² | - |
| 1777329916 | 31.11° C | 67% | 1009.2 hPa | 0 mm | - | 163 W/m² | - |
* Rain latest hour (hover to see other rain measurements)
** Current wind speed in m/s (hover to see current wind gust speed)